Wednesday, June 20, 2018, 9:10 PM GMT
Back to Local

CXMI, McNabs Island , N. S.

Location: , , Canada Lat: 44.6
Local Time: 9:10 PM GMT (21:10 GMT) Lon: -63.533
Time Zone: GMT Elev: 49 ft

Show me the last for .
Show Coded

Time T Td Feel RH Dir Speed Gust Alt SLP Vis Weather Sky Remarks
2018-06-20 20:00 70 - - 0 230° 18 24 - 29.70 0 Peak wind: 24 mph (21 kts) from 230° at 57 min
2018-06-20 19:00 69 - - 0 220° 21 26 - 29.71 0 Peak wind: 29 mph (26 kts) from 210° at 13 min
2018-06-20 18:00 69 - - 0 220° 23 - - 29.72 0 Peak wind: 28 mph (25 kts) from 210° at 48 min
2018-06-20 17:00 71 - - 0 230° 18 26 - 29.74 0 Peak wind: 26 mph (23 kts) from 230° at 57 min
2018-06-20 16:00 69 - - 0 250° 18 24 - 29.75 0 Peak wind: 25 mph (22 kts) from 250° at 46 min
2018-06-20 15:00 70 - - 0 260° 9 - - 29.76 0 None
2018-06-20 14:00 72 - - 0 280° 5 - - 29.77 0 None
2018-06-20 13:00 66 - - 0 290° 6 - - 29.78 0 None
2018-06-20 12:00 66 - - 0 290° 3 - - 29.78 0 None
2018-06-20 11:00 62 - - 0 290° 1 - - 29.77 0 None
2018-06-20 10:00 55 - - 0 290° 1 - - 29.77 0 None
2018-06-20 09:00 53 - - 0 290° 2 - - 29.75 0 None
2018-06-20 08:00 51 - - 0 280° 2 - - 29.74 0 None
2018-06-20 07:00 53 - - 0 310° 3 - - 29.73 0 None
2018-06-20 06:00 52 - - 0 290° 2 - - 29.72 0 None
2018-06-20 05:00 55 - - 0 320° 2 - - 29.72 0 None
2018-06-20 04:00 57 - - 0 330° 6 - - 29.71 0 None
2018-06-20 03:00 57 - - 0 310° 3 - - 29.69 0 None
2018-06-20 02:00 60 - - 0 320° 5 - - 29.68 0 None
2018-06-20 01:00 60 - - 0 280° 3 - - 29.66 0 None
2018-06-20 00:00 61 - - 0 300° 7 - - 29.63 0 Peak wind: 19 mph (17 kts) from 300° at 00 min
2018-06-19 23:00 65 - - 0 320° 9 18 - 29.60 0 Peak wind: 20 mph (18 kts) from 320° at 10 min
2018-06-19 22:00 66 - - 0 330° 12 17 - 29.57 0 Peak wind: 19 mph (17 kts) from 320° at 20 min

Support USWX by starting your Amazon purchase here.